Location: Bayshore Village Mobile Home Park
(26.6945°N, 81.8642°W)
Time: 22:46:08
(UTC+00:00)

Cosmos 2228 Rocket - Pass Details

Date: 17 June 2021
Orbit: 616 x 653 km, 82.5° (Epoch: 31 July)

Event Time Altitude Azimuth Distance (km) Brightness Sun altitude
Rises 09:49:13 0° 355° (N) 2,939 6.9 -9.5°
Reaches altitude 10° 09:51:28 10° 357° (N) 2,022 6.1 -9.1°
Maximum altitude 09:55:58 82° 84° (E) 640 3.2 -8.3°
Drops below altitude 10° 10:00:22 10° 173° (S) 1,989 5.4 -7.4°
Sets 10:02:35 0° 174° (S) 2,887 6.2 -7.0°
